Location: Fl�eln
(46.9030°N, 8.6255°E)
Time: 11:47:30
(UTC+00:00)

Daily predictions for brighter satellites

Satellite Brightness Start Highest point End
(mag) Time Altitude Azimuth Time Altitude Azimuth Time Altitude Azimuth
Nadezhda 4 Rocket 4.4 19:26:00 10° SSE 19:31:49 45° E 19:37:42 10° NNE
Landsat 7 4.2 19:33:24 10° SE 19:38:00 51° ENE 19:42:37 10° N
ISS -3.6 19:35:53 10° WNW 19:39:16 75° NNE 19:42:39 10° ESE
SPOT 3 Rocket 3.9 19:34:42 10° SE 19:39:44 50° ENE 19:44:46 10° N
Cosmos 1825 3.5 19:36:45 10° SSW 19:40:22 45° WNW 19:44:00 10° N
IGS 5A 3.6 19:37:07 10° SSE 19:41:11 58° ENE 19:45:17 10° N
BREEZE-M DEB (TANK) 3.8 19:29:50 10° W 19:43:18 75° NNW 19:47:00 10° ENE
Cosmos 1980 Rocket 2.3 19:38:47 10° NNW 19:44:26 87° WSW 19:50:05 10° SSE
Cosmos 2369 4.1 19:39:08 10° NNW 19:44:44 65° WSW 19:50:19 10° SSE
Cosmos 2058 3.4 19:41:00 10° SSW 19:45:09 66° W 19:49:21 10° N
Cosmos 2221 2.9 19:45:20 10° NNW 19:49:37 67° W 19:53:54 10° S
ERBS 4.2 19:48:04 10° WNW 19:50:36 21° SW 19:53:08 10° S
RESURS DK-1 2.4 19:46:33 10° SSW 19:50:42 88° WNW 19:54:53 10° NNE
USA 245 4.5 19:48:14 10° SE 19:52:54 37° ENE 19:56:46 10° N
COSMOS 2406 4.2 19:48:34 10° SW 19:54:06 53° WNW 19:59:44 10° NNE
BREEZE-M DEB (TANK) 3.4 19:51:02 10° SW 19:54:22 51° SE 20:04:55 10° ENE
Cosmos 2322 Rocket 3.3 19:50:01 10° NNW 19:54:59 31° NE 19:59:55 10° ESE
Cosmos 304 Rocket 4.2 19:55:03 10° NNW 19:59:43 49° ENE 20:03:55 12° SE
BREEZE-M DEB (TANK) 3.4 19:57:11 10° WNW 20:00:16 80° SSW 20:09:22 10° ESE
Cosmos 1933 3.9 19:57:15 10° N 20:01:07 41° ENE 20:04:32 12° SE
Cosmos 1538 Rocket 4.0 19:56:20 10° S 20:01:29 66° ESE 20:06:38 10° NNE
Resurs 01 Rocket 1.7 19:59:24 10° SSE 20:03:50 83° WSW 20:08:19 10° NNW
ERS-2 2.3 20:01:57 10° N 20:05:37 75° WNW 20:09:14 10° SSW
Cosmos 2151 3.1 20:01:48 10° S 20:05:55 53° E 20:10:05 10° NNE
Cosmos 2098 Rocket 2.3 20:04:08 10° S 20:07:11 87° W 20:10:52 10° N
Gbstr 26 Del rocket 2.9 20:05:40 10° WNW 20:09:23 68° NNE 20:12:56 13° ESE
Meteor 2-3 Rocket 4.0 20:05:40 10° SSE 20:11:05 51° E 20:16:37 10° NNE
CARTOSAT-1 4.1 20:09:29 14° SE 20:12:55 43° ENE 20:17:01 10° N
Cosmos 2219 Rocket 4.3 20:12:50 10° N 20:15:56 15° NE 20:19:02 10° ENE
Ariane Rocket 4.1 20:13:30 10° S 20:18:20 43° W 20:23:10 10° NNW
SL-16 R/B 2.5 20:18:10 10° NNW 20:23:47 59° ENE 20:28:03 17° SE
Cosmos 1782 3.2 20:23:41 10° N 20:27:36 48° ENE 20:30:03 20° SE
Cosmos 371 Rocket 3.9 20:23:40 10° NNW 20:28:21 53° WSW 20:32:52 11° S
ARIANE 5 R/B 2.9 20:26:51 18° SE 20:29:59 54° ENE 20:34:21 10° N
Cosmos 1271 Rocket 2.7 20:30:11 10° N 20:34:12 79° E 20:36:55 20° SSE
SPOT 1/Viking Rocket 3.7 20:31:18 12° S 20:36:10 73° WSW 20:41:25 10° NNW
USA 276 2.0 20:33:53 10° WNW 20:37:02 82° SSW 20:38:32 28° ESE
BREEZE-M DEB (TANK) 2.8 20:35:01 10° WNW 20:38:05 59° SSW 20:43:14 18° SE
Cosmos 2195 Rocket 4.4 20:32:06 10° S 20:38:13 81° E 20:44:21 10° N
Cosmos 1766 Rocket 3.9 20:37:42 20° SSE 20:40:21 45° E 20:44:32 10° NNE
Cosmos 1151 Rocket 3.3 20:36:55 10° N 20:41:13 55° ENE 20:43:40 24° SSE
ATLAS 5 CENTAUR R/B 4.2 20:38:36 10° NNW 20:42:22 20° NNE 20:46:34 10° ENE
Cosmos 1328 Rocket 4.0 20:41:08 10° N 20:45:27 47° ENE 20:47:40 25° SE
ATLAS 2AS CENTAUR R/B 4.2 20:37:59 10° WSW 20:45:32 46° NW 20:52:53 10° NE
Cosmos 923 Rocket 4.0 20:42:33 10° SSW 20:47:51 74° ESE 20:53:13 10° NNE
Terra 2.2 20:47:56 24° SE 20:50:35 51° ENE 20:55:12 10° N
ATLAS 3B R/B 3.5 20:44:10 10° NW 20:50:54 46° WSW 20:56:42 15° S
SPOT 5 2.6 20:50:48 25° SSE 20:53:14 74° ENE 20:57:37 10° N
USA 267 3.9 20:48:41 10° ENE 20:54:18 30° SE 20:59:02 13° S
Cosmos 1092 Rocket 4.2 20:50:06 10° SSW 20:56:20 73° W 21:02:41 10° N
Cosmos 2082 Rocket 4.0 20:51:33 10° WSW 20:56:39 34° NW 21:01:47 10° NNE
Cosmos 2056 Rocket 3.8 20:54:03 10° NNW 20:59:21 57° ENE 21:02:09 27° SE
NOSS 2-1 (C) 3.6 21:00:51 32° E 21:00:51 32° E 21:03:21 10° NE
BREEZE-M DEB (TANK) 2.4 21:00:36 10° W 21:02:44 47° N 21:03:13 35° NE
ERS-1 Rocket 2.9 21:00:35 24° SSE 21:03:39 88° WSW 21:08:42 10° NNW
SL-27 R/B 3.2 21:06:23 34° ESE 21:06:25 34° ESE 21:09:42 10° NE
Meteor 2-21 4.5 21:02:38 21° S 21:06:50 65° E 21:12:56 10° NNE
Cosmos 2360 Rocket 2.4 21:01:35 10° NNW 21:07:09 59° ENE 21:10:08 27° SE
NOSS 2-1 (D) 3.3 21:08:18 41° ESE 21:08:18 41° ESE 21:11:09 10° NE
Cosmos 2026 Rocket 4.2 21:03:00 10° SSW 21:09:19 72° W 21:15:36 10° N
GP-B 3.8 21:08:33 10° N 21:12:53 53° W 21:16:14 16° SSW
ISS -2.1 21:13:08 10° W 21:15:49 22° SW 21:15:56 22° SW
Cosmos 2333 Rocket 3.1 21:12:23 10° NNW 21:17:39 38° NE 21:20:38 22° ESE
Spot 2 Rocket 4.3 21:14:48 18° SSW 21:18:21 47° W 21:23:18 10° NNW
Meteor 1-10 Rocket 4.3 21:14:49 10° N 21:20:22 65° ENE 21:22:51 33° SSE
Cosmos 1371 Rocket 4.0 21:15:28 10° NNW 21:20:53 88° WSW 21:23:22 33° SSE
Cosmos 1812 2.7 21:18:00 10° N 21:21:53 82° W 21:23:04 43° S
Cosmos 2112 Rocket 4.0 21:17:49 14° SSW 21:22:30 88° WNW 21:27:48 10° NNE
Cosmos 1680 Rocket 3.6 21:17:44 10° SSW 21:23:01 76° WNW 21:28:18 10° NNE
Cosmos 1500 Rocket 4.3 21:22:34 33° ESE 21:23:15 35° E 21:27:18 10° NNE
Cosmos 220 Rocket 4.1 21:19:57 10° NNW 21:24:16 70° WSW 21:25:50 38° S
Okean 3 Rocket 4.0 21:24:58 21° SSW 21:27:53 62° WNW 21:32:23 10° N
Cosmos 2322 4.5 21:22:34 10° NNW 21:28:01 43° NE 21:30:49 26° ESE
USA 234 4.0 21:22:56 10° E 21:29:13 51° NNE 21:35:31 10° NW
Cosmos 292 Rocket 3.9 21:27:21 10° NNW 21:32:07 65° ENE 21:33:40 41° SE
Cosmos 2237 Rocket 4.3 21:33:59 10° N 21:37:52 18° NE 21:41:44 10° E
Meteor 2-16 Rocket 4.4 21:35:24 32° S 21:38:22 72° E 21:44:26 10° NNE
Cosmos 2322 Rocket 2.7 21:33:51 10° NW 21:39:16 50° WSW 21:41:46 30° SSW
Cosmos 1408 Rocket 3.5 21:40:12 41° SSW 21:41:43 83° W 21:46:05 10° N
Cosmos 1743 Rocket 3.7 21:42:22 48° SE 21:43:06 55° E 21:47:27 10° NNE
Cosmos 2285 Rocket 4.5 21:38:46 10° NNW 21:44:53 49° ENE 21:47:42 30° ESE
Cosmos 2315 Rocket 4.2 21:43:33 10° N 21:49:49 60° ENE 21:52:17 37° SE
Sich 1 4.1 21:51:50 31° E 21:51:50 31° E 21:55:39 10° NNE
Cosmos 2084 3.6 21:48:52 16° SW 21:52:00 68° NW 21:56:11 10° NE
Gbstr 26 Del rocket 4.1 21:52:37 10° W 21:55:26 27° SW 21:55:26 27° SW
Cosmos 2266 Rocket 3.9 21:53:29 35° S 21:56:16 85° E 22:02:33 10° N
Cosmos 1862 4.3 21:57:03 28° SW 21:58:36 42° WNW 22:02:25 10° N
Cosmos 1048 Rocket 4.5 21:59:25 39° ESE 21:59:43 39° ESE 22:04:27 10° NE
Cosmos 2219 Rocket 2.4 21:55:31 10° NNW 22:01:05 63° ENE 22:02:58 40° ESE
Cosmos 2228 Rocket 3.0 22:01:06 10° N 22:05:31 73° E 22:06:05 63° SE
Cosmos 1515 Rocket 4.3 22:01:19 10° NNW 22:05:35 46° W 22:06:43 37° SW
H-2A R/B 4.0 22:01:46 10° N 22:05:53 57° WNW 22:07:14 38° SW
NOSS 2-1 (E) 3.6 22:05:22 40° W 22:06:08 51° NW 22:09:32 10° NNE
SL-16 R/B 3.8 22:03:01 10° NW 22:07:27 24° WSW 22:09:55 18° SW
NOSS 3-1 (C) 4.0 22:02:52 10° NW 22:10:22 87° SW 22:14:30 35° SE
Cosmos 2333 4.1 22:05:03 10° NNW 22:10:41 81° WSW 22:12:13 49° SSE
COSMOS 2455 2.8 22:09:10 44° S 22:10:59 63° ESE 22:16:56 10° NE
Cosmos 1420 Rocket 4.4 22:07:07 10° NNW 22:12:19 54° WSW 22:13:43 42° SSW
Cosmos 883 Rocket 4.5 22:08:24 10° N 22:14:38 79° W 22:16:57 42° S
COSMOS 2428 2.8 22:10:08 10° NNW 22:15:51 67° ENE 22:17:35 44° SE
Cosmos 1655 Rocket 4.3 22:12:44 28° SSW 22:16:13 64° WNW 22:22:36 10° N
Cosmos 1515 4.2 22:17:24 10° N 22:20:48 49° ENE 22:20:48 49° ENE
Spot 4 3.7 22:21:45 62° SSE 22:22:33 81° ENE 22:27:24 10° NNW
USA 229 DEB 3.9 22:17:15 10° NW 22:24:35 78° NE 22:28:16 34° SE
USA 229 3.9 22:17:21 10° NW 22:24:41 77° NE 22:28:23 34° SE
ATLAS 5 CENTAUR R/B 2.6 22:22:33 10° NW 22:27:58 61° NE 22:30:39 33° ESE
Terra 3.7 22:26:49 17° WSW 22:28:37 20° W 22:32:09 10° NW
COSMOS 2487 3.2 22:31:49 49° N 22:31:49 49° N 22:34:27 10° NNE
Cosmos 1452 Rocket 3.5 22:26:39 10° NNW 22:31:54 71° WSW 22:32:49 57° SSW
Cosmos 1707 Rocket 3.6 22:27:49 10° N 22:32:09 62° ENE 22:32:18 61° E
ALOS 2 2.7 22:33:57 60° E 22:34:14 61° ENE 22:38:35 10° N
USA 267 3.2 22:31:15 10° NE 22:37:50 90° NW 22:44:24 10° SW
Meteor 1-27 Rocket 4.4 22:37:14 10° NNW 22:42:35 45° W 22:44:14 36° SW
NOSS 3-1 (A) 4.0 22:37:33 10° NW 22:45:04 86° SW 22:48:48 38° SSE
SL-08 ROCKET BODY 4.5 22:44:13 50° SE 22:45:35 64° E 22:51:40 10° NNE
Cosmos 1805 Rocket 4.0 22:49:13 48° WSW 22:49:47 52° WNW 22:54:09 10° N
Cosmos 2360 Rocket 3.6 22:46:20 10° NW 22:50:43 24° WSW 22:51:53 22° WSW
Nadezhda 2 Rocket 4.5 22:49:09 50° S 22:51:01 90° ENE 22:57:28 10° N
Meteor 1-20 Rocket 4.3 22:54:51 49° SW 22:56:18 71° WNW 23:02:00 10° N
Cosmos 1110 Rocket 3.9 22:52:37 10° NNW 22:57:58 81° WSW 22:58:40 67° S
Cosmos 1980 4.0 22:54:05 10° NNW 22:59:42 59° ENE 23:01:19 43° ESE
Cosmos 2333 Rocket 2.9 22:56:43 10° NW 23:01:55 39° WSW 23:02:38 37° SW
Cosmos 1331 Rocket 3.8 22:58:08 10° NNW 23:03:24 80° WSW 23:03:58 70° S
Cosmos 1244 Rocket 4.5 23:03:47 50° SSW 23:05:30 77° W 23:11:45 10° N
USA 234 3.2 23:10:02 47° SSE 23:12:05 72° SW 23:18:39 10° NW
Nimbus 7 Rocket 4.4 23:06:46 10° NNE 23:12:48 74° ESE 23:14:02 56° SSE
Cosmos 1340 Rocket 4.2 23:13:35 30° ENE 23:13:35 30° ENE 23:16:21 10° NNE
NOSS 0 Rocket 3.8 23:08:24 10° NNW 23:14:40 79° WSW 23:16:01 57° S
Cosmos 2297 Rocket 2.5 23:17:11 48° ESE 23:17:32 48° ESE 23:22:59 10° NE
Okean 1-7 4.0 23:14:49 10° N 23:18:47 36° ENE 23:18:54 36° ENE
Lacrosse 5 2.6 23:21:59 39° E 23:21:59 39° E 23:25:47 10° ENE
Cosmos 2237 Rocket 2.2 23:17:08 10° NNW 23:22:51 81° ENE 23:24:02 58° SE
Cosmos 2084 Rocket 3.5 23:20:07 10° NW 23:24:07 75° N 23:24:07 75° N
Cosmos 2242 Rocket 4.3 23:20:42 10° N 23:24:56 43° ENE 23:25:08 43° E
NOSS 2-2 (E) 4.5 23:20:17 10° NW 23:25:39 80° NE 23:28:32 38° SE
Meteor 1-18 Rocket 4.4 23:20:10 10° NNW 23:25:57 62° W 23:26:57 53° SW
Cosmos 1500 3.9 23:26:57 50° NW 23:26:57 50° NW 23:30:15 10° N
Cosmos 1470 Rocket 3.5 23:29:03 80° NNE 23:29:03 80° NNE 23:33:10 10° N
Cosmos 2227 Rocket 2.6 23:28:53 44° ESE 23:29:15 45° ESE 23:34:37 10° NE
Cosmos 1633 Rocket 3.6 23:33:06 49° W 23:33:12 49° WNW 23:37:26 10° N
Cosmos 1933 Rocket 3.7 23:35:34 67° E 23:35:34 67° E 23:39:53 10° NNE
Meteor 1-11 Rocket 4.1 23:41:19 44° ESE 23:42:11 48° E 23:47:28 10° NNE
Cosmos 2219 Rocket 3.7 23:40:22 10° NW 23:44:32 22° W 23:44:40 22° WSW
Cosmos 2263 Rocket 4.4 23:46:36 11° ESE 23:47:49 12° E 23:49:52 10° ENE
NOSS 2-2 (C) 4.3 23:44:32 10° NW 23:49:52 88° SW 23:52:23 42° SE
SL-16 R/B 2.8 23:44:37 10° NNW 23:50:10 51° ENE 23:52:42 30° ESE
Cosmos 1269 Rocket 3.9 23:50:05 67° SW 23:50:48 83° WNW 23:56:08 10° NNE
Cosmos 1992 Rocket 4.3 23:45:37 10° NNW 23:50:49 60° ENE 23:52:05 46° ESE
PSLV R/B 3.6 23:47:07 10° NNE 23:51:56 90° ESE 23:52:12 80° SSW
Resurs 1-4 Rocket 3.9 23:50:06 10° NE 23:53:49 19° E 23:55:13 17° ESE
